Denver, CO

1:38 PM MDT on August 18, 2017 (GMT -0600)
Denver International

Weather History for KDEN - May, 2013

Change the Weather History Date:

Saturday, May 18, 2013

  Actual Average Record
Temperature  
Mean Temperature 63 °F 58 °F  
Max Temperature 77 °F 72 °F 93 °F (1996)
Min Temperature 49 °F 43 °F 25 °F (1915)
Degree Days  
Heating Degree Days 2 8  
Month to date heating degree days 194 189  
Since 1 July heating degree days 5996 5920  
Cooling Degree Days 0 1  
Month to date cooling degree days 25 3  
Year to date cooling degree days 25 4  
Growing Degree Days 14 (Base 50)    
Moisture  
Dew Point 33 °F    
Average Humidity 42    
Maximum Humidity 63    
Minimum Humidity 20    
Precipitation  
Precipitation T in 0.07 in 1.69 in (1988)
Month to date precipitation 0.65 1.19  
Year to date precipitation 5.07 4.60  
Snow  
Snow 0.00 in - - ()
Month to date snowfall 3.4  
Since 1 July snowfall 78.4  
Snow Depth 0.00 in    
Sea Level Pressure  
Sea Level Pressure 29.68 in    
Wind  
Wind Speed 7 mph (North)    
Max Wind Speed 25 mph    
Max Gust Speed 36 mph    
Visibility 10 miles    
Events Rain , Thunderstorm    
T = Trace of Precipitation, MM = Missing Value Source: NWS Daily Summary

Daily Weather History Graph

Daily Weather History Graph

Search for Another Location

Airport or City:

Trip Planner

Search our weather history database for the weather conditions in past years. The results will help you decide how hot, cold, wet, or windy it might be!

Date:

Astronomy

May. 18, 2013 Rise Set
Actual Time 5:40 AM MDT 8:09 PM MDT
Civil Twilight 5:10 AM MDT 8:40 PM MDT
Nautical Twilight 4:31 AM MDT 9:19 PM MDT
Astronomical Twilight 3:49 AM MDT 10:02 PM MDT
Moon 1:16 PM MDT 1:34 AM MDT
Length of Visible Light 15h 30m
Length of Day
14h 28m
First Quarter, 56% of the Moon is Illuminated
May 18
First Quarter
May 24
Full
May 31
Last Quarter
Jun 8
New
Jun 16
First Quarter

Hourly Weather History & Observations

Time (MDT) Temp. Dew Point Humidity Pressure Visibility Wind Dir Wind Speed Gust Speed Precip Events Conditions
12:53 AM 59.0 °F 25.0 °F 27% 29.63 in 10.0 mi SW 6.9 mph - N/A   Clear
1:53 AM 63.0 °F 21.9 °F 21% 29.60 in 10.0 mi SW 6.9 mph - N/A   Clear
2:53 AM 57.0 °F 23.0 °F 27% 29.62 in 10.0 mi WSW 10.4 mph - N/A   Clear
3:53 AM 55.9 °F 23.0 °F 28% 29.63 in 10.0 mi SW 11.5 mph - N/A   Partly Cloudy
4:53 AM 57.9 °F 23.0 °F 26% 29.63 in 10.0 mi SW 13.8 mph - N/A   Mostly Cloudy
5:53 AM 57.0 °F 26.1 °F 30% 29.68 in 10.0 mi West 5.8 mph - N/A   Mostly Cloudy
6:53 AM 60.1 °F 33.1 °F 36% 29.69 in 10.0 mi NW 3.5 mph - N/A   Mostly Cloudy
7:53 AM 62.1 °F 39.0 °F 43% 29.71 in 10.0 mi Calm Calm - N/A   Mostly Cloudy
8:53 AM 66.0 °F 41.0 °F 40% 29.72 in 10.0 mi ESE 5.8 mph - N/A   Overcast
9:53 AM 68.0 °F 41.0 °F 37% 29.70 in 10.0 mi NE 6.9 mph - N/A   Overcast
10:53 AM 70.0 °F 37.9 °F 31% 29.69 in 10.0 mi NNE 6.9 mph - N/A   Overcast
11:53 AM 73.0 °F 36.0 °F 26% 29.67 in 10.0 mi Variable 4.6 mph - N/A   Mostly Cloudy
12:53 PM 75.2 °F 32.0 °F 21% 29.87 in 10.0 mi Calm Calm - N/A   Mostly Cloudy
1:53 PM 77.0 °F 33.1 °F 20% 29.62 in 10.0 mi ENE 5.8 mph - N/A   Mostly Cloudy
2:53 PM 72.0 °F 30.0 °F 21% 29.63 in 10.0 mi North 4.6 mph - N/A   Mostly Cloudy
3:00 PM 71.6 °F 30.2 °F 22% 29.83 in 10.0 mi NNE 4.6 mph - N/A Thunderstorm Thunderstorm
3:53 PM 71.1 °F 35.1 °F 27% 29.63 in 10.0 mi South 3.5 mph - 0.00 in   Mostly Cloudy
4:12 PM 69.8 °F 33.8 °F 27% 29.82 in 10.0 mi East 13.8 mph 29.9 mph 0.00 in Rain Light Rain
4:53 PM 73.0 °F 32.0 °F 22% 29.57 in 10.0 mi SW 4.6 mph - 0.00 in   Mostly Cloudy
5:53 PM 72.0 °F 33.1 °F 24% 29.57 in 10.0 mi North 5.8 mph - N/A   Mostly Cloudy
6:53 PM 68.0 °F 36.0 °F 31% 29.59 in 10.0 mi NW 19.6 mph 28.8 mph N/A   Mostly Cloudy
7:53 PM 64.0 °F 37.9 °F 38% 29.62 in 10.0 mi North 11.5 mph - N/A   Mostly Cloudy
8:24 PM 62.6 °F 39.2 °F 42% 29.84 in 10.0 mi NNE 11.5 mph - N/A Thunderstorm Thunderstorm
8:42 PM 60.8 °F 39.2 °F 45% 29.86 in 10.0 mi NE 13.8 mph - N/A   Mostly Cloudy
8:53 PM 60.1 °F 39.0 °F 46% 29.67 in 10.0 mi ENE 17.3 mph - N/A   Mostly Cloudy
9:53 PM 55.9 °F 39.0 °F 53% 29.69 in 10.0 mi NNE 13.8 mph 18.4 mph N/A   Mostly Cloudy
10:53 PM 51.1 °F 37.9 °F 61% 29.70 in 10.0 mi SSE 5.8 mph - N/A   Scattered Clouds
11:53 PM 51.1 °F 39.0 °F 63% 29.70 in 10.0 mi WSW 6.9 mph - N/A   Mostly Cloudy